ARIANE 5 R/B, 43059

Orbit data source: Space-Track

ARIANE 5 R/B, 43059 is space debris originally from a launch on Tue, 12 Dec 2017 UTC launched from the French Guiana (FRGUI). Debris objects in space refer to the collection of defunct objects orbiting the Earth. Examples of debris include non-operational satellites, rocket bodies, and fragments generated from explosions, collisions, or faulty payload assembly.

Loading next visibility...
Identifier
43059, 2017-079E
Orbit
Active
Country
Flag of FRFR
Related business
Manufacturer
ADS/Bremen
Mission
Spacecraft
Bus & Motor
EPS+, AESTUS
Mass
3,300 kg wet, 3,300 kg dry
Launch date (UTC)
2017-12-12 (9 years ago)
Launch vehicle
Unknown
Launch site
French Guiana (FRGUI)
Object type
Payload
Rocket body
Debris
Shape & HBR
Cone + Cyl, 2.7 m
Radar Cross Section
28.860 m², Large (>1 m²)

Expand to show TLE details & history
Last TLE update: 3 days ago

TLE from 3 days ago
0 ARIANE 5 R/B
1 43059U 17079E   26170.56903994  .00000030  00000-0  00000-0 0  9999
2 43059  55.1046 218.4794 0002560 279.4353  80.6119  1.73189568 53893
Epoch: 2026-06-19T13:39Z
TLE epoch observation values (Epoch: 2026-06-19T13:39:25.050Z)
Latitude
-0.00008°
Longitude
105.84208°
Altitude
22,910.996 km
Speed
3.689 km/s
True Right ascension
14h 33m 58s
True Declination
0° 00' 00"
Sunlit
Object was in daylight at epoch
Visualization orbit readout
Latitude
Unknown
Longitude
Unknown
Altitude
Unknown
Speed
Unknown
Apparent Right ascension
Unknown
Apparent Declination
Unknown
Sunlit
N/A
Visualization observer readout
Local Sidereal Time
21:36:04
Azimuth
Unknown
Elevation
Unknown
Doppler factor
Unknown
Orbital elements
Apogee altitude
22,919.454 km
Perigee altitude
22,904.458 km
Semi-major axis
29,290.093 km
Eccentricity
0.00026
Inclination
55.1046°
RAAN
218.4794°
Arg. of periapsis
279.4353°
True anomaly
80.64084°
Mean anomaly
80.6119°
Eccentric anomaly
80.62637°
Mean motion
0.43297 °/min
Orbital period
831.46 mins
BSTAR
0
Loading maneuver chart data...
Computing Atmospheric mass density...
Loading historical data...
Loading historical data...
Loading historical data...
Loading historical data...
Loading historical data...
Loading historical data...
Loading historical data...
Other satellites on launch #79 in the year 2017 (2017-12-12 UTC)

Documentation

Showing up to 5 results
|